• In Hungary
  • List of Countries
  • For 7 days
  • Water Temperature
  • Satellite Maps
  • Weather Map
  • News
  • Weather Widgets
  • user-avatar
    Login

    Hourly Weather Maloe Vasilevo

    Today, 21 July, Saturday

    Time Temperature Precipitation Wind Pressure Humidity
    00:00 +19°C° 0 mm 3 mps 743 mmHg 94%
    01:00 +19°C° 0 mm 3 mps 743 mmHg 95%
    02:00 +19°C° 0 mm 3 mps 743 mmHg 97%
    03:00 +19°C° 0 mm 3 mps 744 mmHg 96%
    04:00 +19°C° 0 mm 3 mps 744 mmHg 96%
    05:00 +19°C° 0 mm 3 mps 744 mmHg 95%
    06:00 +20°C° 0.2 mm 3 mps 744 mmHg 93%
    07:00 +21°C° 0.2 mm 3 mps 744 mmHg 91%
    08:00 +22°C° 0.2 mm 3 mps 744 mmHg 88%
    09:00 +22°C° 0.5 mm 3 mps 744 mmHg 86%
    10:00 +23°C° 0.5 mm 4 mps 744 mmHg 84%
    11:00 +25°C° 0.5 mm 4 mps 744 mmHg 82%
    12:00 +25°C° 1.7 mm 4 mps 744 mmHg 83%
    13:00 +26°C° 1.7 mm 4 mps 745 mmHg 83%
    14:00 +26°C° 1.7 mm 3 mps 745 mmHg 84%
    15:00 +26°C° 0.8 mm 3 mps 745 mmHg 84%
    16:00 +25°C° 0.8 mm 3 mps 744 mmHg 85%
    17:00 +25°C° 0.8 mm 3 mps 744 mmHg 86%
    18:00 +24°C° 0.2 mm 3 mps 745 mmHg 88%
    19:00 +22°C° 0.2 mm 3 mps 745 mmHg 90%
    20:00 +21°C° 0.2 mm 3 mps 745 mmHg 92%
    21:00 +21°C° 0.1 mm 3 mps 745 mmHg 93%
    22:00 +20°C° 0.1 mm 3 mps 745 mmHg 94%
    23:00 +20°C° 0.1 mm 3 mps 745 mmHg 95%

    Tomorrow, 22 July, Sunday

    Time Temperature Precipitation Wind Pressure Humidity
    00:00 +19°C° 0 mm 3 mps 745 mmHg 96%
    01:00 +19°C° 0 mm 3 mps 745 mmHg 97%
    02:00 +18°C° 0 mm 3 mps 745 mmHg 97%
    03:00 +18°C° 0 mm 3 mps 746 mmHg 96%
    04:00 +18°C° 0 mm 3 mps 746 mmHg 95%
    05:00 +18°C° 0 mm 3 mps 746 mmHg 94%
    06:00 +19°C° 0 mm 3 mps 746 mmHg 93%
    07:00 +19°C° 0 mm 3 mps 746 mmHg 91%
    08:00 +20°C° 0 mm 3 mps 746 mmHg 89%
    09:00 +20°C° 0.1 mm 4 mps 746 mmHg 88%
    10:00 +21°C° 0.1 mm 4 mps 746 mmHg 87%
    11:00 +22°C° 0.1 mm 4 mps 746 mmHg 85%
    12:00 +21°C° 0.1 mm 4 mps 746 mmHg 85%
    13:00 +21°C° 0.1 mm 4 mps 746 mmHg 84%
    14:00 +21°C° 0.1 mm 4 mps 746 mmHg 83%
    15:00 +22°C° 0.1 mm 4 mps 746 mmHg 82%
    16:00 +22°C° 0.1 mm 3 mps 746 mmHg 80%
    17:00 +22°C° 0.1 mm 3 mps 746 mmHg 79%
    18:00 +22°C° 0.1 mm 3 mps 746 mmHg 83%
    19:00 +21°C° 0.1 mm 2 mps 746 mmHg 88%
    20:00 +20°C° 0.1 mm 2 mps 747 mmHg 92%
    21:00 +19°C° 0 mm 2 mps 747 mmHg 93%
    22:00 +19°C° 0 mm 3 mps 747 mmHg 94%
    23:00 +18°C° 0 mm 3 mps 747 mmHg 95%

    Day after tomorrow, 23 July, Monday

    Time Temperature Precipitation Wind Pressure Humidity
    00:00 +18°C° 0 mm 3 mps 747 mmHg 96%
    01:00 +17°C° 0 mm 3 mps 747 mmHg 97%
    02:00 +17°C° 0 mm 3 mps 747 mmHg 97%
    03:00 +17°C° 0 mm 3 mps 747 mmHg 96%
    04:00 +17°C° 0 mm 3 mps 747 mmHg 95%
    05:00 +17°C° 0 mm 3 mps 747 mmHg 94%
    06:00 +18°C° 0 mm 4 mps 747 mmHg 92%
    07:00 +18°C° 0 mm 4 mps 747 mmHg 89%
    08:00 +19°C° 0 mm 4 mps 747 mmHg 86%
    09:00 +19°C° 0.1 mm 4 mps 747 mmHg 85%
    10:00 +19°C° 0.1 mm 4 mps 747 mmHg 84%
    11:00 +20°C° 0.1 mm 4 mps 748 mmHg 82%
    12:00 +20°C° 0.1 mm 4 mps 747 mmHg 82%
    13:00 +20°C° 0.1 mm 4 mps 747 mmHg 82%
    14:00 +20°C° 0.1 mm 4 mps 747 mmHg 82%
    15:00 +19°C° 0.1 mm 4 mps 747 mmHg 85%
    16:00 +19°C° 0.1 mm 4 mps 747 mmHg 87%
    17:00 +19°C° 0.1 mm 4 mps 747 mmHg 89%
    18:00 +18°C° 0 mm 4 mps 748 mmHg 90%
    19:00 +18°C° 0 mm 4 mps 748 mmHg 91%
    20:00 +17°C° 0 mm 3 mps 748 mmHg 92%
    21:00 +17°C° 0.1 mm 3 mps 748 mmHg 92%
    22:00 +17°C° 0.1 mm 3 mps 748 mmHg 93%
    23:00 +16°C° 0.1 mm 3 mps 748 mmHg 94%

    24 July, Tuesday

    Time Temperature Precipitation Wind Pressure Humidity
    00:00 +16°C° 0.2 mm 3 mps 747 mmHg 95%
    01:00 +16°C° 0.2 mm 3 mps 747 mmHg 96%
    02:00 +16°C° 0.2 mm 3 mps 747 mmHg 97%
    03:00 +16°C° 0.1 mm 3 mps 747 mmHg 96%
    04:00 +16°C° 0.1 mm 3 mps 747 mmHg 96%
    05:00 +16°C° 0.1 mm 3 mps 747 mmHg 96%
    06:00 +17°C° 0.1 mm 3 mps 747 mmHg 96%
    07:00 +17°C° 0.1 mm 3 mps 747 mmHg 95%
    08:00 +17°C° 0.1 mm 3 mps 747 mmHg 95%
    09:00 +18°C° 0.2 mm 3 mps 748 mmHg 92%
    10:00 +19°C° 0.2 mm 3 mps 748 mmHg 90%
    11:00 +20°C° 0.2 mm 3 mps 748 mmHg 88%
    12:00 +21°C° 0.1 mm 3 mps 748 mmHg 85%
    13:00 +22°C° 0.1 mm 3 mps 748 mmHg 82%
    14:00 +24°C° 0.1 mm 3 mps 748 mmHg 79%
    15:00 +24°C° 0 mm 3 mps 748 mmHg 78%
    16:00 +24°C° 0 mm 3 mps 748 mmHg 78%
    17:00 +24°C° 0 mm 3 mps 748 mmHg 77%
    18:00 +22°C° 0.1 mm 3 mps 748 mmHg 82%
    19:00 +21°C° 0.1 mm 3 mps 748 mmHg 87%
    20:00 +20°C° 0.1 mm 2 mps 748 mmHg 93%
    21:00 +20°C° 0.3 mm 2 mps 748 mmHg 94%
    22:00 +19°C° 0.3 mm 3 mps 748 mmHg 96%
    23:00 +19°C° 0.3 mm 3 mps 748 mmHg 97%

    25 July, Wednesday

    Time Temperature Precipitation Wind Pressure Humidity
    00:00 +19°C° 0.3 mm 3 mps 748 mmHg 97%
    01:00 +19°C° 0.3 mm 3 mps 748 mmHg 97%
    02:00 +19°C° 0.3 mm 3 mps 748 mmHg 97%
    03:00 +19°C° 0.1 mm 3 mps 749 mmHg 96%
    04:00 +19°C° 0.1 mm 3 mps 749 mmHg 96%
    05:00 +19°C° 0.1 mm 4 mps 749 mmHg 95%
    06:00 +19°C° 0.2 mm 3 mps 749 mmHg 94%
    07:00 +19°C° 0.2 mm 3 mps 750 mmHg 94%
    08:00 +19°C° 0.2 mm 3 mps 750 mmHg 93%
    09:00 +19°C° 0.1 mm 3 mps 750 mmHg 90%
    10:00 +20°C° 0.1 mm 3 mps 750 mmHg 87%
    11:00 +21°C° 0.1 mm 4 mps 750 mmHg 84%
    12:00 +22°C° 0 mm 4 mps 750 mmHg 76%
    13:00 +25°C° 0 mm 5 mps 750 mmHg 68%
    14:00 +27°C° 0 mm 5 mps 750 mmHg 59%
    15:00 +26°C° 0 mm 5 mps 750 mmHg 60%
    16:00 +26°C° 0 mm 4 mps 750 mmHg 62%
    17:00 +26°C° 0 mm 4 mps 750 mmHg 63%
    18:00 +24°C° 0 mm 3 mps 750 mmHg 68%
    19:00 +22°C° 0 mm 3 mps 750 mmHg 72%
    20:00 +20°C° 0 mm 3 mps 750 mmHg 77%
    21:00 +19°C° 0 mm 3 mps 750 mmHg 81%
    22:00 +19°C° 0 mm 3 mps 751 mmHg 84%
    23:00 +18°C° 0 mm 2 mps 751 mmHg 88%

    26 July, Thursday

    Time Temperature Precipitation Wind Pressure Humidity
    00:00 +17°C° 0 mm 2 mps 751 mmHg 91%
    01:00 +17°C° 0 mm 3 mps 751 mmHg 94%
    02:00 +17°C° 0 mm 3 mps 751 mmHg 96%
    03:00 +17°C° 0 mm 3 mps 751 mmHg 96%
    04:00 +17°C° 0 mm 3 mps 752 mmHg 95%
    05:00 +17°C° 0 mm 3 mps 752 mmHg 94%
    06:00 +19°C° 0 mm 3 mps 752 mmHg 90%
    07:00 +20°C° 0 mm 3 mps 752 mmHg 86%
    08:00 +21°C° 0 mm 3 mps 752 mmHg 82%
    09:00 +24°C° 0 mm 3 mps 753 mmHg 76%
    10:00 +26°C° 0 mm 3 mps 753 mmHg 70%
    11:00 +28°C° 0 mm 3 mps 753 mmHg 63%
    12:00 +28°C° 0 mm 3 mps 753 mmHg 61%
    13:00 +29°C° 0 mm 4 mps 753 mmHg 58%
    14:00 +30°C° 0 mm 4 mps 753 mmHg 56%
    15:00 +30°C° 0.1 mm 3 mps 753 mmHg 59%
    16:00 +29°C° 0.1 mm 3 mps 753 mmHg 61%
    17:00 +29°C° 0.1 mm 3 mps 753 mmHg 64%
    18:00 +27°C° 0.1 mm 3 mps 753 mmHg 69%
    19:00 +25°C° 0.1 mm 3 mps 753 mmHg 73%
    20:00 +24°C° 0.1 mm 3 mps 753 mmHg 78%
    21:00 +22°C° 0 mm 3 mps 753 mmHg 80%
    22:00 +21°C° 0 mm 3 mps 753 mmHg 81%
    23:00 +21°C° 0 mm 3 mps 754 mmHg 82%
    Show more